Regional Weather Roundup
Issued by NWS

Home | Current Version | Previous Version | Graphics & Text | Print | Product List | Glossary On
Versions: 1 2 3 4 5 6 7 8 9 10 11 12 13 14 15 16 17 18 19 20 21 22 23 24 25 26 27 28 29 30 31 32 33 34 35 36 37 38 39 40 41 42 43 44 45 46 47 48 49 50
000
ASUS43 KLOT 262009
RWRIL

ILLINOIS REGIONAL WEATHER ROUNDUP
NATIONAL WEATHER SERVICE CHICAGO/ROMEOVILLE IL
300 PM CDT FRI AUG 26 2016

NOTE: "FAIR" INDICATES FEW OR NO CLOUDS BELOW 12,000 FEET WITH NO
SIGNIFICANT WEATHER AND/OR OBSTRUCTIONS TO VISIBILITY.

* THESE STATIONS ARE NOT UNDER NWS QUALITY CONTROL. THEY ALSO MAY NOT
  REPORT WEATHER SUCH AS PRECIPITATION OR FOG.

ILZ001-002-007-009-015-016-024-262100-
NORTHWEST ILLINOIS

CITY           SKY/WX    TMP DP  RH WIND       PRES   REMARKS
MOLINE         CLOUDY    78  64  61 E8        30.10F HX  80
STERLING*      MOSUNNY   76  64  66 E5        30.13F
SAVANNA*       CLOUDY    77  63  60 NE5       30.12F
$$

ILZ003-004-008-010-011-017-018-262100-
NORTH CENTRAL ILLINOIS

CITY           SKY/WX    TMP DP  RH WIND       PRES   REMARKS
ROCKFORD       CLOUDY    77  61  57 E6        30.14F
FREEPORT*      PTSUNNY   73  60  61 E6        30.16S
ROCHELLE*      MOSUNNY   77  61  58 E6        30.13F
DE KALB*       CLOUDY    77  64  65 N5        30.13F
$$

ILZ005-006-012>014-019>023-262100-
NORTHEAST ILLINOIS

CITY           SKY/WX    TMP DP  RH WIND       PRES   REMARKS
CHICAGO-OHARE  PTSUNNY   79  60  52 NE10      30.12F HX  80
CHICAGO-MIDWAY PTSUNNY   79  62  56 E6        30.12F HX  80
AURORA         CLOUDY    80  62  54 NE6       30.11F HX  81
LANSING*       CLOUDY    78  70  75 N8        30.12F HX  80
JOLIET*        CLOUDY    82  66  58 SE6       30.11F HX  85
WAUKEGAN       CLOUDY    75  60  59 E6        30.14F
DUPAGE AIRPORT PTSUNNY   80  60  50 E3        30.11F HX  81
KANKAKEE*      CLOUDY    80  68  67 E5        30.11F HX  82
WHEELING       SUNNY     76  58  53 NE7       30.14F
MORRIS*        CLOUDY    82  64  54 E3        30.09F HX  83
ROMEOVILLE*    CLOUDY    81  68  64 E7        30.11F HX  83
NORTHERLY ISL    N/A     75  65  70 NE8         N/A
$$

LMZ740>746-262100-
SOUTHERN LAKE MICHIGAN

STATION/POSITION SKY/WX   TEMP    WIND        PRES    VSBY  WAVE
                          AIR SEA DIR/SP/G                  HT/PER
                          (F)     (DEG/KT/KT) (MB)    (MI)  (FT/S)
SOUTHERN BUOY              71 76   20/  4/  6 1020.6F         1
WILMETTE HARBOR            72 72   80/  6/  8   N/A           1/ 4
HARRISON CRIB              72      20/  7/  8   N/A
BURNHAM HARBOR             75      30/  4/  8   N/A
CALUMET HARBOR             73     360/  9/ 10 1020.5F
BURNS HARBOR               75      40/  9/ 11 1021.0F
MICHIGAN CITY              73      10/ 10/ 11   N/A
MICHIGAN CITY 6N           74 75   20/ 10/ 12   N/A           2/ 4
ST. JOSEPH                 73 77  350/  8/ 12 1020.3F         2/ 4
$$

ILZ025>027-034>036-040-047-049-050-058-095>099-262100-
WEST-CENTRAL ILLINOIS

CITY           SKY/WX    TMP DP  RH WIND       PRES   REMARKS
QUINCY         MOSUNNY   77  71  82 E6        30.07F
GALESBURG*     CLOUDY    77  67  69 E6        30.09F
MACOMB*        CLOUDY    77  66  68 E7        30.10F
JACKSONVILLE*  CLOUDY    81  71  73 SE6       30.07F HX  84
PITTSFIELD*    CLOUDY    81  73  75 E3        30.08F HX  86
$$

ILZ028>032-037-038-041>044-048-051>054-059>061-262100-
CENTRAL ILLINOIS

CITY           SKY/WX    TMP DP  RH WIND       PRES   REMARKS
PONTIAC        CLOUDY    79  70  73 E6        30.11F HX  82
BLOOMINGTON    CLOUDY    80  71  74 E9        30.11S HX  84
DECATUR        CLOUDY    85  74  69 E5        30.07F HX  92
PEORIA         CLOUDY    79  71  76 E7        30.09F HX  82
LACON*         PTSUNNY   78  65  65 E5        30.08F
LINCOLN*       CLOUDY    82  74  77 E7        30.07F HX  88
SPRINGFIELD    CLOUDY    83  72  69 NE7       30.07F HX  88
TAYLORVILLE    CLOUDY    85  75  73 E3        30.06F HX  93
$$

ILZ033-039-045-046-055>057-062-063-262100-
EAST-CENTRAL ILLINOIS

CITY           SKY/WX    TMP DP  RH WIND       PRES   REMARKS
CHAMPAIGN      MOSUNNY   84  72  67 E5        30.09F HX  89
RANTOUL*       MOSUNNY   85  74  71 NE5       30.09F HX  92
MATTOON        CLOUDY    79  69  71 E7        30.07S HX  81
PARIS*         TSTM      70  68  95 S14G20    30.11R
$$

ILZ079-100>102-262100-
SOUTHWEST ILLINOIS

CITY           SKY/WX    TMP DP  RH WIND       PRES   REMARKS
ALTON          PTSUNNY   84  75  74 VRB5      30.04F HX  92
BELLEVILLE     CLOUDY    89  73  58 S9        30.02F HX  96
CAHOKIA*       CLOUDY    90  72  55 W5        30.03F HX  97
SPARTA*        LGT RAIN  78  74  88 SE7       30.07S HX  80
$$

ILZ064>066-069>071-074>076-080>082-084>086-088>090-092>094-262100-
SOUTH-CENTRAL ILLINOIS

CITY           SKY/WX    TMP DP  RH WIND       PRES   REMARKS
CARBONDALE     CLOUDY    76  71  85 CALM      30.07S
CAIRO*         CLOUDY    79  71  77 NW10      30.06R THUNDER HX  82
EFFINGHAM*     CLOUDY    74  74 100 S9        30.10R THUNDER
MARION         PTSUNNY   81  72  74 NE7       30.08F HX  84
MT. VERNON     CLOUDY    81  73  78 S6        30.07F HX  85
CENTRALIA*     CLOUDY    87  77  72 S5        30.05S HX  97
SALEM*         CLOUDY    80  70  70 E6        30.07F HX  83
METROPOLIS*    SUNNY     94  73  50 CALM      30.04F HX 103
$$

ILZ067-068-072-073-078-083-087-091-262100-
SOUTHEAST ILLINOIS

CITY           SKY/WX    TMP DP  RH WIND       PRES   REMARKS
LAWRENCEVILLE  PTSUNNY   91  73  55 S6        30.06S HX  99
FLORA*         TSTM      74  71  88 N10       30.09F
FAIRFIELD*     CLOUDY    78  70  77 S9        30.06F HX  80
HARRISBURG*    TSTM      76  73  90 N5        30.09F
ROBINSON*      CLOUDY    87  76  70 SW5       30.07S HX  96
CARMI*         CLOUDY    82  72  70 W7        30.05F HX  87
$$

ABBREVIATIONS USED IN REMARKS
   TC - TEMPERATURE IN CELSIUS
  WCI - WIND CHILL INDEX
   HX - HEAT INDEX
  VSB - VISIBILITY
$$





USA.gov is the U.S. government's official web portal to all federal, state and local government web resources and services.